Location: Borovka
(49.7741°N, 14.5280°E)
Time: 16:07:10
(UTC+00:00)

Thor Agena Rocket - Pass Details

Date: 20 February 2026
Orbit: 755 x 801 km, 99.1° (Epoch: 8 March)

Event Time Altitude Azimuth Distance (km) Brightness Sun altitude
Rises 17:04:04 0° 182° (S) 3,235 6.9 -6.3°
Reaches altitude 10° 17:06:27 10° 189° (S) 2,320 6.2 -6.7°
Maximum altitude 17:11:20 44° 261° (W) 1,078 5.0 -7.5°
Drops below altitude 10° 17:16:19 10° 333° (NNW) 2,365 6.3 -8.3°
Sets 17:18:47 0° 340° (NNW) 3,305 7.0 -8.7°
